Time,TemperatureF,DewpointF,PressureIn,WindDirection,WindDirectionDegrees,WindSpeedMPH,WindSpeedGustMPH,Humidity,HourlyPrecipIn,Conditions,Clouds,dailyrainin,SoftwareType,DateUTC
2013-02-07 00:00:00,23.9,4.7,30.33,WNW,285,2.0,5.0,43,0.00,,,0.00,WeatherCatV1.02B3,2013-02-07 05:00:00,
2013-02-07 00:05:00,23.8,4.6,30.33,West,273,5.0,7.0,43,0.00,,,0.00,WeatherCatV1.02B3,2013-02-07 05:05:00,
2013-02-07 00:10:00,23.7,5.0,30.33,WSW,249,4.0,7.0,44,0.00,,,0.00,WeatherCatV1.02B3,2013-02-07 05:10:00,
2013-02-07 00:15:00,23.6,4.9,30.32,West,280,2.0,5.0,44,0.00,,,0.00,WeatherCatV1.02B3,2013-02-07 05:15:00,
2013-02-07 00:20:00,23.4,4.7,30.33,West,271,6.0,10.0,44,0.00,,,0.00,WeatherCatV1.02B3,2013-02-07 05:20:00,
2013-02-07 00:25:00,23.4,4.7,30.33,West,281,1.0,6.0,44,0.00,,,0.00,WeatherCatV1.02B3,2013-02-07 05:25:00,
2013-02-07 00:30:00,23.3,4.6,30.34,WNW,286,6.0,7.0,44,0.00,,,0.00,WeatherCatV1.02B3,2013-02-07 05:30:00,
2013-02-07 00:33:00,23.3,4.6,30.34,West,279,3.0,6.0,44,0.00,,,0.00,WeatherCatV1.02B3,2013-02-07 05:33:00,
2013-02-07 00:38:00,23.2,5.0,30.34,West,278,0.0,6.0,45,0.00,,,0.00,WeatherCatV1.02B3,2013-02-07 05:38:00,
2013-02-07 00:43:00,23.1,5.0,30.34,NW,306,0.0,0.0,45,0.00,,,0.00,WeatherCatV1.02B3,2013-02-07 05:43:00,
2013-02-07 00:48:00,22.9,5.2,30.33,WNW,284,0.0,0.0,46,0.00,,,0.00,WeatherCatV1.02B3,2013-02-07 05:48:00,
2013-02-07 00:53:00,22.7,5.1,30.33,WNW,284,0.0,0.0,46,0.00,,,0.00,WeatherCatV1.02B3,2013-02-07 05:53:00,
2013-02-07 00:58:00,22.5,4.9,30.33,NW,325,3.0,3.0,46,0.00,,,0.00,WeatherCatV1.02B3,2013-02-07 05:58:00,
2013-02-07 01:03:00,22.4,5.3,30.33,West,280,3.0,4.0,47,0.00,,,0.00,WeatherCatV1.02B3,2013-02-07 06:03:00,
2013-02-07 01:08:00,22.4,4.8,30.34,NW,304,1.0,7.0,46,0.00,,,0.00,WeatherCatV1.02B3,2013-02-07 06:08:00,
2013-02-07 01:13:00,22.5,4.9,30.34,WNW,285,0.0,3.0,46,0.00,,,0.00,WeatherCatV1.02B3,2013-02-07 06:13:00,
2013-02-07 01:18:00,22.4,4.8,30.34,WNW,300,0.0,2.0,46,0.00,,,0.00,WeatherCatV1.02B3,2013-02-07 06:18:00,
2013-02-07 01:23:00,22.2,5.1,30.34,WNW,296,0.0,4.0,47,0.00,,,0.00,WeatherCatV1.02B3,2013-02-07 06:23:00,
2013-02-07 01:28:00,22.1,5.4,30.35,WNW,285,0.0,3.0,48,0.00,,,0.00,WeatherCatV1.02B3,2013-02-07 06:28:00,
2013-02-07 01:33:00,22.0,4.9,30.35,North,355,0.0,5.0,47,0.00,,,0.00,WeatherCatV1.02B3,2013-02-07 06:33:00,
2013-02-07 01:38:00,21.9,5.3,30.35,WNW,292,2.0,4.0,48,0.00,,,0.00,WeatherCatV1.02B3,2013-02-07 06:38:00,
2013-02-07 01:43:00,21.8,5.2,30.35,WNW,285,0.0,6.0,48,0.00,,,0.00,WeatherCatV1.02B3,2013-02-07 06:43:00,
2013-02-07 01:48:00,21.7,5.1,30.35,West,274,0.0,4.0,48,0.00,,,0.00,WeatherCatV1.02B3,2013-02-07 06:48:00,
2013-02-07 01:53:00,21.6,5.4,30.36,West,274,3.0,3.0,49,0.00,,,0.00,WeatherCatV1.02B3,2013-02-07 06:53:00,
2013-02-07 01:58:00,21.5,5.3,30.36,West,281,3.0,5.0,49,0.00,,,0.00,WeatherCatV1.02B3,2013-02-07 06:58:00,
2013-02-07 02:03:00,21.4,5.2,30.36,WNW,290,1.0,6.0,49,0.00,,,0.00,WeatherCatV1.02B3,2013-02-07 07:03:00,
2013-02-07 02:08:00,21.4,5.7,30.36,West,273,0.0,3.0,50,0.00,,,0.00,WeatherCatV1.02B3,2013-02-07 07:08:00,
2013-02-07 02:13:00,21.3,5.6,30.36,West,273,0.0,3.0,50,0.00,,,0.00,WeatherCatV1.02B3,2013-02-07 07:13:00,
2013-02-07 02:18:00,21.1,5.4,30.36,West,273,0.0,3.0,50,0.00,,,0.00,WeatherCatV1.02B3,2013-02-07 07:18:00,
2013-02-07 02:23:00,20.9,5.7,30.36,West,273,0.0,2.0,51,0.00,,,0.00,WeatherCatV1.02B3,2013-02-07 07:23:00,
2013-02-07 02:28:00,20.8,6.0,30.36,West,273,0.0,0.0,52,0.00,,,0.00,WeatherCatV1.02B3,2013-02-07 07:28:00,
2013-02-07 02:33:00,20.5,5.7,30.36,West,273,0.0,0.0,52,0.00,,,0.00,WeatherCatV1.02B3,2013-02-07 07:33:00,
2013-02-07 02:38:00,20.3,5.9,30.36,West,273,0.0,3.0,53,0.00,,,0.00,WeatherCatV1.02B3,2013-02-07 07:38:00,
2013-02-07 02:43:00,20.2,5.8,30.36,West,273,0.0,0.0,53,0.00,,,0.00,WeatherCatV1.02B3,2013-02-07 07:43:00,
2013-02-07 02:48:00,20.0,6.1,30.37,West,273,0.0,2.0,54,0.00,,,0.00,WeatherCatV1.02B3,2013-02-07 07:48:00,
2013-02-07 02:53:00,19.8,6.3,30.38,West,273,0.0,0.0,55,0.00,,,0.00,WeatherCatV1.02B3,2013-02-07 07:53:00,
2013-02-07 02:58:00,19.5,6.0,30.38,West,273,0.0,0.0,55,0.00,,,0.00,WeatherCatV1.02B3,2013-02-07 07:58:00,
2013-02-07 03:03:00,19.3,6.2,30.38,West,273,0.0,3.0,56,0.00,,,0.00,WeatherCatV1.02B3,2013-02-07 08:03:00,
2013-02-07 03:08:00,19.3,5.8,30.38,West,273,0.0,3.0,55,0.00,,,0.00,WeatherCatV1.02B3,2013-02-07 08:08:00,
2013-02-07 03:13:00,19.2,6.1,30.38,WNW,284,0.0,5.0,56,0.00,,,0.00,WeatherCatV1.02B3,2013-02-07 08:13:00,
2013-02-07 03:18:00,19.3,5.8,30.39,WNW,293,0.0,4.0,55,0.00,,,0.00,WeatherCatV1.02B3,2013-02-07 08:18:00,
2013-02-07 03:23:00,19.5,6.4,30.39,WNW,293,0.0,1.0,56,0.00,,,0.00,WeatherCatV1.02B3,2013-02-07 08:23:00,
2013-02-07 03:28:00,19.4,6.3,30.39,WNW,293,0.0,0.0,56,0.00,,,0.00,WeatherCatV1.02B3,2013-02-07 08:28:00,
2013-02-07 03:33:00,19.1,6.4,30.40,WSW,253,1.0,3.0,57,0.00,,,0.00,WeatherCatV1.02B3,2013-02-07 08:33:00,
2013-02-07 03:38:00,18.9,6.2,30.40,WSW,253,0.0,0.0,57,0.00,,,0.00,WeatherCatV1.02B3,2013-02-07 08:38:00,
2013-02-07 03:43:00,18.7,6.0,30.40,WSW,253,0.0,0.0,57,0.00,,,0.00,WeatherCatV1.02B3,2013-02-07 08:43:00,
2013-02-07 03:48:00,18.4,6.1,30.41,WSW,253,0.0,0.0,58,0.00,,,0.00,WeatherCatV1.02B3,2013-02-07 08:48:00,
2013-02-07 03:53:00,18.2,6.3,30.41,WSW,253,0.0,0.0,59,0.00,,,0.00,WeatherCatV1.02B3,2013-02-07 08:53:00,
2013-02-07 03:58:00,18.0,6.5,30.42,WSW,253,0.0,0.0,60,0.00,,,0.00,WeatherCatV1.02B3,2013-02-07 08:58:00,
2013-02-07 04:03:00,17.9,6.8,30.42,WSW,253,0.0,0.0,61,0.00,,,0.00,WeatherCatV1.02B3,2013-02-07 09:03:00,
2013-02-07 04:08:00,17.7,6.6,30.42,WSW,253,0.0,1.0,61,0.00,,,0.00,WeatherCatV1.02B3,2013-02-07 09:08:00,
2013-02-07 04:13:00,17.5,7.1,30.42,WSW,253,0.0,0.0,63,0.00,,,0.00,WeatherCatV1.02B3,2013-02-07 09:13:00,
2013-02-07 04:18:00,17.3,6.9,30.42,WSW,253,2.0,2.0,63,0.00,,,0.00,WeatherCatV1.02B3,2013-02-07 09:18:00,
2013-02-07 04:23:00,17.1,7.1,30.42,WSW,253,0.0,3.0,64,0.00,,,0.00,WeatherCatV1.02B3,2013-02-07 09:23:00,
2013-02-07 04:28:00,17.1,6.7,30.42,WSW,253,0.0,2.0,63,0.00,,,0.00,WeatherCatV1.02B3,2013-02-07 09:28:00,
2013-02-07 04:33:00,17.1,6.7,30.42,WSW,253,0.0,0.0,63,0.00,,,0.00,WeatherCatV1.02B3,2013-02-07 09:33:00,
2013-02-07 04:38:00,17.2,6.8,30.42,WSW,253,0.0,0.0,63,0.00,,,0.00,WeatherCatV1.02B3,2013-02-07 09:38:00,
2013-02-07 04:43:00,17.2,6.8,30.42,WSW,253,0.0,0.0,63,0.00,,,0.00,WeatherCatV1.02B3,2013-02-07 09:43:00,
2013-02-07 04:48:00,17.1,6.7,30.42,WSW,253,1.0,1.0,63,0.00,,,0.00,WeatherCatV1.02B3,2013-02-07 09:48:00,
2013-02-07 04:53:00,17.1,6.7,30.42,West,264,0.0,1.0,63,0.00,,,0.00,WeatherCatV1.02B3,2013-02-07 09:53:00,
2013-02-07 04:58:00,17.1,7.1,30.43,West,264,1.0,3.0,64,0.00,,,0.00,WeatherCatV1.02B3,2013-02-07 09:58:00,
2013-02-07 05:03:00,17.1,7.1,30.43,West,264,0.0,0.0,64,0.00,,,0.00,WeatherCatV1.02B3,2013-02-07 10:03:00,
2013-02-07 05:08:00,17.0,7.0,30.43,West,264,0.0,0.0,64,0.00,,,0.00,WeatherCatV1.02B3,2013-02-07 10:08:00,
2013-02-07 05:13:00,16.9,6.9,30.43,West,264,0.0,0.0,64,0.00,,,0.00,WeatherCatV1.02B3,2013-02-07 10:13:00,
2013-02-07 05:18:00,16.7,7.0,30.43,West,264,0.0,0.0,65,0.00,,,0.00,WeatherCatV1.02B3,2013-02-07 10:18:00,
2013-02-07 05:23:00,16.5,7.2,30.43,West,264,1.0,1.0,66,0.00,,,0.00,WeatherCatV1.02B3,2013-02-07 10:23:00,
2013-02-07 05:28:00,16.3,7.0,30.43,West,264,1.0,1.0,66,0.00,,,0.00,WeatherCatV1.02B3,2013-02-07 10:28:00,
2013-02-07 05:33:00,16.1,7.1,30.44,West,264,0.0,0.0,67,0.00,,,0.00,WeatherCatV1.02B3,2013-02-07 10:33:00,
2013-02-07 05:38:00,16.0,6.7,30.43,West,264,0.0,0.0,66,0.00,,,0.00,WeatherCatV1.02B3,2013-02-07 10:38:00,
2013-02-07 05:43:00,15.9,6.9,30.43,West,264,0.0,0.0,67,0.00,,,0.00,WeatherCatV1.02B3,2013-02-07 10:43:00,
2013-02-07 05:48:00,15.8,7.1,30.44,West,264,0.0,0.0,68,0.00,,,0.00,WeatherCatV1.02B3,2013-02-07 10:48:00,
2013-02-07 05:53:00,15.6,6.9,30.44,West,264,0.0,0.0,68,0.00,,,0.00,WeatherCatV1.02B3,2013-02-07 10:53:00,
2013-02-07 05:58:00,15.4,7.4,30.44,West,264,0.0,0.0,70,0.00,,,0.00,WeatherCatV1.02B3,2013-02-07 10:58:00,
2013-02-07 06:03:00,15.2,7.2,30.44,West,264,0.0,0.0,70,0.00,,,0.00,WeatherCatV1.02B3,2013-02-07 11:03:00,
2013-02-07 06:08:00,15.0,7.3,30.44,West,264,0.0,0.0,71,0.00,,,0.00,WeatherCatV1.02B3,2013-02-07 11:08:00,
2013-02-07 06:13:00,14.8,7.1,30.45,West,264,0.0,0.0,71,0.00,,,0.00,WeatherCatV1.02B3,2013-02-07 11:13:00,
2013-02-07 06:18:00,14.7,7.0,30.45,West,264,0.0,0.0,71,0.00,,,0.00,WeatherCatV1.02B3,2013-02-07 11:18:00,
2013-02-07 06:23:00,14.6,7.2,30.46,West,264,0.0,0.0,72,0.00,,,0.00,WeatherCatV1.02B3,2013-02-07 11:23:00,
2013-02-07 06:28:00,14.4,7.4,30.47,West,264,0.0,0.0,73,0.00,,,0.00,WeatherCatV1.02B3,2013-02-07 11:28:00,
2013-02-07 06:33:00,14.4,7.4,30.46,West,264,0.0,0.0,73,0.00,,,0.00,WeatherCatV1.02B3,2013-02-07 11:33:00,
2013-02-07 06:38:00,14.2,7.2,30.47,West,264,0.0,0.0,73,0.00,,,0.00,WeatherCatV1.02B3,2013-02-07 11:38:00,
2013-02-07 06:43:00,14.1,7.4,30.47,West,264,0.0,0.0,74,0.00,,,0.00,WeatherCatV1.02B3,2013-02-07 11:43:00,
2013-02-07 06:48:00,13.9,7.2,30.48,West,264,0.0,0.0,74,0.00,,,0.00,WeatherCatV1.02B3,2013-02-07 11:48:00,
2013-02-07 06:53:00,13.8,7.4,30.48,West,264,0.0,0.0,75,0.00,,,0.00,WeatherCatV1.02B3,2013-02-07 11:53:00,
2013-02-07 06:58:00,13.7,7.6,30.48,West,264,0.0,0.0,76,0.00,,,0.00,WeatherCatV1.02B3,2013-02-07 11:58:00,
2013-02-07 07:03:00,13.7,7.9,30.48,West,264,0.0,0.0,77,0.00,,,0.00,WeatherCatV1.02B3,2013-02-07 12:03:00,
2013-02-07 07:08:00,13.6,7.8,30.48,West,264,0.0,0.0,77,0.00,,,0.00,WeatherCatV1.02B3,2013-02-07 12:08:00,
2013-02-07 07:13:00,13.6,7.8,30.49,West,264,0.0,0.0,77,0.00,,,0.00,WeatherCatV1.02B3,2013-02-07 12:13:00,
2013-02-07 07:18:00,13.6,7.8,30.49,West,264,0.0,0.0,77,0.00,,,0.00,WeatherCatV1.02B3,2013-02-07 12:18:00,
2013-02-07 07:23:00,13.7,7.9,30.49,West,264,0.0,1.0,77,0.00,,,0.00,WeatherCatV1.02B3,2013-02-07 12:23:00,
2013-02-07 07:28:00,14.2,8.3,30.49,West,264,0.0,0.0,77,0.00,,,0.00,WeatherCatV1.02B3,2013-02-07 12:28:00,
2013-02-07 07:33:00,14.5,8.6,30.50,West,264,0.0,0.0,77,0.00,,,0.00,WeatherCatV1.02B3,2013-02-07 12:33:00,
2013-02-07 07:38:00,15.1,8.6,30.51,West,264,0.0,2.0,75,0.00,,,0.00,WeatherCatV1.02B3,2013-02-07 12:38:00,
2013-02-07 07:43:00,15.8,8.7,30.51,West,264,0.0,2.0,73,0.00,,,0.00,WeatherCatV1.02B3,2013-02-07 12:43:00,
2013-02-07 07:48:00,16.3,8.9,30.51,West,264,0.0,1.0,72,0.00,,,0.00,WeatherCatV1.02B3,2013-02-07 12:48:00,
2013-02-07 07:53:00,16.9,8.8,30.52,West,264,0.0,3.0,70,0.00,,,0.00,WeatherCatV1.02B3,2013-02-07 12:53:00,
2013-02-07 07:58:00,17.3,8.6,30.52,West,264,0.0,2.0,68,0.00,,,0.00,WeatherCatV1.02B3,2013-02-07 12:58:00,
2013-02-07 08:03:00,17.6,8.5,30.53,West,264,0.0,1.0,67,0.00,,,0.00,WeatherCatV1.02B3,2013-02-07 13:03:00,
2013-02-07 08:08:00,17.7,8.6,30.53,West,264,0.0,0.0,67,0.00,,,0.00,WeatherCatV1.02B3,2013-02-07 13:08:00,
2013-02-07 08:13:00,17.9,8.5,30.53,West,264,0.0,3.0,66,0.00,,,0.00,WeatherCatV1.02B3,2013-02-07 13:13:00,
2013-02-07 08:18:00,18.0,8.2,30.52,West,264,0.0,0.0,65,0.00,,,0.00,WeatherCatV1.02B3,2013-02-07 13:18:00,
2013-02-07 08:23:00,18.1,8.7,30.52,West,264,0.0,0.0,66,0.00,,,0.00,WeatherCatV1.02B3,2013-02-07 13:23:00,
2013-02-07 08:28:00,18.2,8.4,30.53,West,264,0.0,0.0,65,0.00,,,0.00,WeatherCatV1.02B3,2013-02-07 13:28:00,
2013-02-07 08:33:00,18.2,8.4,30.53,West,264,0.0,0.0,65,0.00,,,0.00,WeatherCatV1.02B3,2013-02-07 13:33:00,
2013-02-07 08:38:00,18.2,7.8,30.53,WNW,294,1.0,3.0,63,0.00,,,0.00,WeatherCatV1.02B3,2013-02-07 13:38:00,
2013-02-07 08:43:00,18.2,7.4,30.53,NW,306,0.0,0.0,62,0.00,,,0.00,WeatherCatV1.02B3,2013-02-07 13:43:00,
2013-02-07 08:48:00,18.3,7.5,30.53,NNW,342,1.0,2.0,62,0.00,,,0.00,WeatherCatV1.02B3,2013-02-07 13:48:00,
2013-02-07 08:53:00,18.3,7.1,30.53,WNW,286,0.0,2.0,61,0.00,,,0.00,WeatherCatV1.02B3,2013-02-07 13:53:00,
2013-02-07 08:58:00,18.3,6.8,30.53,WNW,288,0.0,0.0,60,0.00,,,0.00,WeatherCatV1.02B3,2013-02-07 13:58:00,
2013-02-07 09:03:00,18.4,6.9,30.53,WNW,295,0.0,0.0,60,0.00,,,0.00,WeatherCatV1.02B3,2013-02-07 14:03:00,
2013-02-07 09:08:00,18.5,6.6,30.53,WNW,296,0.0,3.0,59,0.00,,,0.00,WeatherCatV1.02B3,2013-02-07 14:08:00,
2013-02-07 09:13:00,18.6,6.7,30.53,WNW,296,1.0,2.0,59,0.00,,,0.00,WeatherCatV1.02B3,2013-02-07 14:13:00,
2013-02-07 09:18:00,18.9,6.6,30.53,WNW,296,0.0,0.0,58,0.00,,,0.00,WeatherCatV1.02B3,2013-02-07 14:18:00,
2013-02-07 09:23:00,19.2,6.9,30.54,WNW,296,1.0,2.0,58,0.00,,,0.00,WeatherCatV1.02B3,2013-02-07 14:23:00,
2013-02-07 09:28:00,19.8,7.1,30.54,WNW,296,0.0,3.0,57,0.00,,,0.00,WeatherCatV1.02B3,2013-02-07 14:28:00,
2013-02-07 09:33:00,20.2,6.7,30.54,WNW,296,0.0,0.0,55,0.00,,,0.00,WeatherCatV1.02B3,2013-02-07 14:33:00,
2013-02-07 09:38:00,20.6,6.6,30.54,WNW,296,0.0,3.0,54,0.00,,,0.00,WeatherCatV1.02B3,2013-02-07 14:38:00,
2013-02-07 09:43:00,20.7,6.7,30.54,West,274,3.0,4.0,54,0.00,,,0.00,WeatherCatV1.02B3,2013-02-07 14:43:00,
2013-02-07 09:48:00,21.1,7.1,30.54,NNE,20,3.0,5.0,54,0.00,,,0.00,WeatherCatV1.02B3,2013-02-07 14:48:00,
2013-02-07 09:53:00,21.9,6.1,30.54,WNW,294,0.0,9.0,50,0.00,,,0.00,WeatherCatV1.02B3,2013-02-07 14:53:00,
2013-02-07 09:57:00,22.4,6.2,30.54,NNE,23,0.0,2.0,49,0.00,,,0.00,WeatherCatV1.02B3,2013-02-07 14:57:00,
2013-02-07 10:02:00,23.2,5.5,30.55,NNW,347,0.0,7.0,46,0.00,,,0.00,WeatherCatV1.02B3,2013-02-07 15:02:00,
2013-02-07 10:07:00,23.7,5.0,30.55,West,262,3.0,4.0,44,0.00,,,0.00,WeatherCatV1.02B3,2013-02-07 15:07:00,
2013-02-07 10:12:00,23.9,5.7,30.55,NW,318,2.0,5.0,45,0.00,,,0.00,WeatherCatV1.02B3,2013-02-07 15:12:00,
2013-02-07 10:17:00,24.0,4.3,30.55,NW,307,0.0,1.0,42,0.00,,,0.00,WeatherCatV1.02B3,2013-02-07 15:17:00,
2013-02-07 10:22:00,24.1,3.8,30.55,SW,227,0.0,4.0,41,0.00,,,0.00,WeatherCatV1.02B3,2013-02-07 15:22:00,
2013-02-07 10:27:00,24.4,5.7,30.55,East,96,0.0,5.0,44,0.00,,,0.00,WeatherCatV1.02B3,2013-02-07 15:27:00,
2013-02-07 10:32:00,24.7,4.9,30.55,WNW,286,0.0,4.0,42,0.00,,,0.00,WeatherCatV1.02B3,2013-02-07 15:32:00,
2013-02-07 10:37:00,24.4,4.1,30.54,WNW,284,3.0,7.0,41,0.00,,,0.00,WeatherCatV1.02B3,2013-02-07 15:37:00,
2013-02-07 10:42:00,23.9,4.7,30.55,NNW,340,0.0,3.0,43,0.00,,,0.00,WeatherCatV1.02B3,2013-02-07 15:42:00,
2013-02-07 10:47:00,24.2,4.5,30.54,NW,305,2.0,4.0,42,0.00,,,0.00,WeatherCatV1.02B3,2013-02-07 15:47:00,
2013-02-07 10:53:00,24.2,4.5,30.55,WNW,285,0.0,1.0,42,0.00,,,0.00,WeatherCatV1.02B3,2013-02-07 15:53:00,
2013-02-07 10:58:00,24.4,4.6,30.54,NNW,330,0.0,4.0,42,0.00,,,0.00,WeatherCatV1.02B3,2013-02-07 15:58:00,
2013-02-07 11:03:00,24.5,4.2,30.54,NNW,348,0.0,4.0,41,0.00,,,0.00,WeatherCatV1.02B3,2013-02-07 16:03:00,
2013-02-07 11:08:00,24.9,4.6,30.54,WNW,297,2.0,8.0,41,0.00,,,0.00,WeatherCatV1.02B3,2013-02-07 16:08:00,
2013-02-07 11:15:00,25.7,4.8,30.54,NW,305,2.0,4.0,40,0.00,,,0.00,WeatherCatV1.02B3,2013-02-07 16:15:00,
2013-02-07 11:20:00,26.1,5.1,30.53,NW,319,0.0,7.0,40,0.00,,,0.00,WeatherCatV1.02B3,2013-02-07 16:20:00,
2013-02-07 11:25:00,26.3,4.7,30.53,NNW,333,5.0,5.0,39,0.00,,,0.00,WeatherCatV1.02B3,2013-02-07 16:25:00,
2013-02-07 11:30:00,26.2,4.1,30.53,West,277,5.0,9.0,38,0.00,,,0.00,WeatherCatV1.02B3,2013-02-07 16:30:00,
2013-02-07 11:35:00,26.1,5.1,30.53,WNW,301,1.0,1.0,40,0.00,,,0.00,WeatherCatV1.02B3,2013-02-07 16:35:00,
2013-02-07 11:40:00,26.3,5.3,30.53,NW,317,0.0,3.0,40,0.00,,,0.00,WeatherCatV1.02B3,2013-02-07 16:40:00,
2013-02-07 11:45:00,26.9,5.3,30.53,North,350,3.0,4.0,39,0.00,,,0.00,WeatherCatV1.02B3,2013-02-07 16:45:00,
2013-02-07 11:50:00,27.1,6.6,30.53,West,275,4.0,7.0,41,0.00,,,0.00,WeatherCatV1.02B3,2013-02-07 16:50:00,
2013-02-07 11:55:00,26.9,4.1,30.53,NNW,340,2.0,6.0,37,0.00,,,0.00,WeatherCatV1.02B3,2013-02-07 16:55:00,
2013-02-07 12:00:00,27.0,5.9,30.52,NNW,330,0.0,7.0,40,0.00,,,0.00,WeatherCatV1.02B3,2013-02-07 17:00:00,
2013-02-07 12:05:00,27.2,5.0,30.52,NNE,16,0.0,3.0,38,0.00,,,0.00,WeatherCatV1.02B3,2013-02-07 17:05:00,
2013-02-07 12:10:00,27.5,5.3,30.52,NNE,28,0.0,7.0,38,0.00,,,0.00,WeatherCatV1.02B3,2013-02-07 17:10:00,
2013-02-07 12:15:00,27.4,4.6,30.51,WNW,285,6.0,8.0,37,0.00,,,0.00,WeatherCatV1.02B3,2013-02-07 17:15:00,
2013-02-07 12:20:00,27.7,6.0,30.51,West,273,1.0,4.0,39,0.00,,,0.00,WeatherCatV1.02B3,2013-02-07 17:20:00,
2013-02-07 12:25:00,27.7,4.9,30.51,NNE,17,2.0,6.0,37,0.00,,,0.00,WeatherCatV1.02B3,2013-02-07 17:25:00,
2013-02-07 12:30:00,28.0,5.1,30.51,NW,312,0.0,7.0,37,0.00,,,0.00,WeatherCatV1.02B3,2013-02-07 17:30:00,
2013-02-07 12:35:00,28.1,5.2,30.51,NE,44,0.0,8.0,37,0.00,,,0.00,WeatherCatV1.02B3,2013-02-07 17:35:00,
2013-02-07 12:40:00,28.3,4.8,30.51,NW,305,2.0,5.0,36,0.00,,,0.00,WeatherCatV1.02B3,2013-02-07 17:40:00,
2013-02-07 12:45:00,28.4,5.5,30.50,NE,42,0.0,1.0,37,0.00,,,0.00,WeatherCatV1.02B3,2013-02-07 17:45:00,
2013-02-07 12:50:00,28.5,5.6,30.51,NNW,338,0.0,2.0,37,0.00,,,0.00,WeatherCatV1.02B3,2013-02-07 17:50:00,
2013-02-07 12:55:00,28.3,4.2,30.50,WNW,299,0.0,2.0,35,0.00,,,0.00,WeatherCatV1.02B3,2013-02-07 17:55:00,
2013-02-07 13:00:00,28.2,3.5,30.50,WNW,299,0.0,3.0,34,0.00,,,0.00,WeatherCatV1.02B3,2013-02-07 18:00:00,
2013-02-07 13:05:00,28.0,3.9,30.50,NW,309,4.0,10.0,35,0.00,,,0.00,WeatherCatV1.02B3,2013-02-07 18:05:00,
2013-02-07 13:10:00,28.1,3.4,30.50,WNW,285,4.0,9.0,34,0.00,,,0.00,WeatherCatV1.02B3,2013-02-07 18:10:00,
2013-02-07 13:15:00,28.4,4.3,30.50,NNW,327,2.0,5.0,35,0.00,,,0.00,WeatherCatV1.02B3,2013-02-07 18:15:00,
2013-02-07 13:20:00,28.6,3.8,30.50,NW,309,7.0,9.0,34,0.00,,,0.00,WeatherCatV1.02B3,2013-02-07 18:20:00,
2013-02-07 13:25:00,28.5,4.4,30.50,WNW,294,2.0,4.0,35,0.00,,,0.00,WeatherCatV1.02B3,2013-02-07 18:25:00,
2013-02-07 13:30:00,28.5,5.0,30.50,NNW,330,0.0,4.0,36,0.00,,,0.00,WeatherCatV1.02B3,2013-02-07 18:30:00,
2013-02-07 13:35:00,28.8,4.6,30.50,NW,322,0.0,3.0,35,0.00,,,0.00,WeatherCatV1.02B3,2013-02-07 18:35:00,
2013-02-07 13:40:00,28.9,4.1,30.49,WNW,288,0.0,1.0,34,0.00,,,0.00,WeatherCatV1.02B3,2013-02-07 18:40:00,
2013-02-07 13:45:00,29.0,3.5,30.49,WNW,294,0.0,5.0,33,0.00,,,0.00,WeatherCatV1.02B3,2013-02-07 18:45:00,
2013-02-07 13:50:00,28.9,4.1,30.49,NNW,338,0.0,4.0,34,0.00,,,0.00,WeatherCatV1.02B3,2013-02-07 18:50:00,
2013-02-07 13:55:00,29.0,4.2,30.49,NNE,18,0.0,0.0,34,0.00,,,0.00,WeatherCatV1.02B3,2013-02-07 18:55:00,
2013-02-07 14:00:00,29.1,4.3,30.49,North,11,0.0,4.0,34,0.00,,,0.00,WeatherCatV1.02B3,2013-02-07 19:00:00,
2013-02-07 14:05:00,29.1,3.6,30.49,ENE,64,1.0,3.0,33,0.00,,,0.00,WeatherCatV1.02B3,2013-02-07 19:05:00,
2013-02-07 14:10:00,29.0,4.2,30.49,NW,306,1.0,2.0,34,0.00,,,0.00,WeatherCatV1.02B3,2013-02-07 19:10:00,
2013-02-07 14:15:00,29.2,4.4,30.49,NW,313,0.0,6.0,34,0.00,,,0.00,WeatherCatV1.02B3,2013-02-07 19:15:00,
2013-02-07 14:20:00,29.3,3.8,30.49,WNW,294,4.0,5.0,33,0.00,,,0.00,WeatherCatV1.02B3,2013-02-07 19:20:00,
2013-02-07 14:25:00,29.4,5.2,30.48,NNE,32,3.0,4.0,35,0.00,,,0.00,WeatherCatV1.02B3,2013-02-07 19:25:00,
2013-02-07 14:30:00,29.4,5.2,30.48,NE,43,0.0,3.0,35,0.00,,,0.00,WeatherCatV1.02B3,2013-02-07 19:30:00,
2013-02-07 14:35:00,29.7,4.8,30.48,WNW,285,0.0,5.0,34,0.00,,,0.00,WeatherCatV1.02B3,2013-02-07 19:35:00,
2013-02-07 14:40:00,29.8,4.2,30.48,WNW,285,0.0,1.0,33,0.00,,,0.00,WeatherCatV1.02B3,2013-02-07 19:40:00,
2013-02-07 14:45:00,29.7,4.8,30.48,WNW,285,2.0,3.0,34,0.00,,,0.00,WeatherCatV1.02B3,2013-02-07 19:45:00,
2013-02-07 14:50:00,29.7,5.4,30.48,WNW,285,1.0,3.0,35,0.00,,,0.00,WeatherCatV1.02B3,2013-02-07 19:50:00,
2013-02-07 14:55:00,29.8,4.9,30.49,WNW,285,2.0,3.0,34,0.00,,,0.00,WeatherCatV1.02B3,2013-02-07 19:55:00,
2013-02-07 15:00:00,29.3,3.8,30.49,WNW,285,0.0,3.0,33,0.00,,,0.00,WeatherCatV1.02B3,2013-02-07 20:00:00,
2013-02-07 15:05:00,29.0,4.2,30.49,WNW,285,0.0,2.0,34,0.00,,,0.00,WeatherCatV1.02B3,2013-02-07 20:05:00,
2013-02-07 15:10:00,29.0,4.8,30.49,WNW,285,0.0,1.0,35,0.00,,,0.00,WeatherCatV1.02B3,2013-02-07 20:10:00,
2013-02-07 15:15:00,28.8,4.0,30.49,WNW,285,0.0,0.0,34,0.00,,,0.00,WeatherCatV1.02B3,2013-02-07 20:15:00,
2013-02-07 15:20:00,28.7,4.5,30.49,WNW,285,0.0,0.0,35,0.00,,,0.00,WeatherCatV1.02B3,2013-02-07 20:20:00,
2013-02-07 15:25:00,28.7,3.9,30.49,WNW,285,0.0,0.0,34,0.00,,,0.00,WeatherCatV1.02B3,2013-02-07 20:25:00,
2013-02-07 15:30:00,28.7,5.2,30.49,WNW,285,0.0,1.0,36,0.00,,,0.00,WeatherCatV1.02B3,2013-02-07 20:30:00,
2013-02-07 15:35:00,28.8,4.6,30.49,WNW,285,0.0,0.0,35,0.00,,,0.00,WeatherCatV1.02B3,2013-02-07 20:35:00,
2013-02-07 15:40:00,28.7,4.5,30.49,WNW,285,0.0,1.0,35,0.00,,,0.00,WeatherCatV1.02B3,2013-02-07 20:40:00,
2013-02-07 15:45:00,28.6,4.5,30.49,WNW,293,1.0,1.0,35,0.00,,,0.00,WeatherCatV1.02B3,2013-02-07 20:45:00,
2013-02-07 15:50:00,28.5,4.4,30.49,NE,42,2.0,4.0,35,0.00,,,0.00,WeatherCatV1.02B3,2013-02-07 20:50:00,
2013-02-07 15:55:00,28.4,4.9,30.49,NE,42,1.0,1.0,36,0.00,,,0.00,WeatherCatV1.02B3,2013-02-07 20:55:00,
2013-02-07 16:00:00,28.4,4.9,30.49,NE,42,0.0,0.0,36,0.00,,,0.00,WeatherCatV1.02B3,2013-02-07 21:00:00,
2013-02-07 16:05:00,28.3,5.4,30.49,North,11,0.0,2.0,37,0.00,,,0.00,WeatherCatV1.02B3,2013-02-07 21:05:00,
2013-02-07 16:10:00,28.2,4.1,30.49,NE,46,3.0,3.0,35,0.00,,,0.00,WeatherCatV1.02B3,2013-02-07 21:10:00,
2013-02-07 16:15:00,28.2,5.3,30.49,NNE,27,0.0,3.0,37,0.00,,,0.00,WeatherCatV1.02B3,2013-02-07 21:15:00,
2013-02-07 16:20:00,28.2,4.1,30.49,NNE,27,0.0,0.0,35,0.00,,,0.00,WeatherCatV1.02B3,2013-02-07 21:20:00,
2013-02-07 16:25:00,28.1,4.6,30.48,NNE,27,0.0,2.0,36,0.00,,,0.00,WeatherCatV1.02B3,2013-02-07 21:25:00,
2013-02-07 16:30:00,28.1,5.2,30.48,NNE,27,0.0,1.0,37,0.00,,,0.00,WeatherCatV1.02B3,2013-02-07 21:30:00,
2013-02-07 16:35:00,28.0,3.9,30.48,ENE,78,0.0,2.0,35,0.00,,,0.00,WeatherCatV1.02B3,2013-02-07 21:35:00,
2013-02-07 16:40:00,28.0,3.9,30.48,ENE,78,0.0,2.0,35,0.00,,,0.00,WeatherCatV1.02B3,2013-02-07 21:40:00,
2013-02-07 16:45:00,27.9,5.0,30.48,ENE,78,0.0,1.0,37,0.00,,,0.00,WeatherCatV1.02B3,2013-02-07 21:45:00,
2013-02-07 16:50:00,27.8,5.0,30.49,NE,40,3.0,4.0,37,0.00,,,0.00,WeatherCatV1.02B3,2013-02-07 21:50:00,
2013-02-07 16:55:00,27.7,4.3,30.49,NE,55,0.0,2.0,36,0.00,,,0.00,WeatherCatV1.02B3,2013-02-07 21:55:00,
2013-02-07 17:00:00,27.6,4.2,30.49,ENE,71,0.0,1.0,36,0.00,,,0.00,WeatherCatV1.02B3,2013-02-07 22:00:00,
2013-02-07 17:05:00,27.5,4.7,30.49,ENE,71,1.0,3.0,37,0.00,,,0.00,WeatherCatV1.02B3,2013-02-07 22:05:00,
2013-02-07 17:10:00,27.4,5.2,30.49,ENE,59,1.0,2.0,38,0.00,,,0.00,WeatherCatV1.02B3,2013-02-07 22:10:00,
2013-02-07 17:15:00,27.3,4.5,30.49,ENE,59,0.0,1.0,37,0.00,,,0.00,WeatherCatV1.02B3,2013-02-07 22:15:00,
2013-02-07 17:20:00,27.2,4.4,30.49,ENE,59,0.0,1.0,37,0.00,,,0.00,WeatherCatV1.02B3,2013-02-07 22:20:00,
2013-02-07 17:25:00,27.2,5.6,30.49,ENE,59,0.0,0.0,39,0.00,,,0.00,WeatherCatV1.02B3,2013-02-07 22:25:00,
2013-02-07 17:30:00,27.0,4.8,30.50,NE,55,2.0,3.0,38,0.00,,,0.00,WeatherCatV1.02B3,2013-02-07 22:30:00,
2013-02-07 17:35:00,27.0,4.8,30.50,NE,56,0.0,2.0,38,0.00,,,0.00,WeatherCatV1.02B3,2013-02-07 22:35:00,
2013-02-07 17:40:00,26.9,5.8,30.50,NE,56,0.0,2.0,40,0.00,,,0.00,WeatherCatV1.02B3,2013-02-07 22:40:00,
2013-02-07 17:45:00,26.9,5.8,30.50,ENE,61,0.0,3.0,40,0.00,,,0.00,WeatherCatV1.02B3,2013-02-07 22:45:00,
2013-02-07 17:50:00,26.8,5.8,30.50,ENE,58,0.0,3.0,40,0.00,,,0.00,WeatherCatV1.02B3,2013-02-07 22:50:00,
2013-02-07 17:55:00,26.6,6.1,30.50,East,89,0.0,0.0,41,0.00,,,0.00,WeatherCatV1.02B3,2013-02-07 22:55:00,
2013-02-07 18:00:00,26.5,4.4,30.50,East,89,0.0,0.0,38,0.00,,,0.00,WeatherCatV1.02B3,2013-02-07 23:00:00,
2013-02-07 18:05:00,26.5,4.9,30.50,East,89,0.0,1.0,39,0.00,,,0.00,WeatherCatV1.02B3,2013-02-07 23:05:00,
2013-02-07 18:10:00,26.5,4.9,30.50,ENE,61,0.0,2.0,39,0.00,,,0.00,WeatherCatV1.02B3,2013-02-07 23:10:00,
2013-02-07 18:15:00,26.4,5.4,30.51,ENE,61,2.0,3.0,40,0.00,,,0.00,WeatherCatV1.02B3,2013-02-07 23:15:00,
2013-02-07 18:21:00,26.3,4.7,30.51,East,82,1.0,3.0,39,0.00,,,0.00,WeatherCatV1.02B3,2013-02-07 23:21:00,
2013-02-07 18:26:00,26.2,4.7,30.51,East,97,0.0,0.0,39,0.00,,,0.00,WeatherCatV1.02B3,2013-02-07 23:26:00,
2013-02-07 18:31:00,26.2,4.7,30.51,NE,40,0.0,0.0,39,0.00,,,0.00,WeatherCatV1.02B3,2013-02-07 23:31:00,
2013-02-07 18:36:00,26.1,4.6,30.51,ENE,69,0.0,2.0,39,0.00,,,0.00,WeatherCatV1.02B3,2013-02-07 23:36:00,
2013-02-07 18:41:00,26.1,4.6,30.52,East,90,0.0,2.0,39,0.00,,,0.00,WeatherCatV1.02B3,2013-02-07 23:41:00,
2013-02-07 18:46:00,26.1,4.6,30.52,NE,48,1.0,1.0,39,0.00,,,0.00,WeatherCatV1.02B3,2013-02-07 23:46:00,
2013-02-07 18:51:00,26.1,4.6,30.52,East,80,0.0,2.0,39,0.00,,,0.00,WeatherCatV1.02B3,2013-02-07 23:51:00,
2013-02-07 18:56:00,26.1,4.6,30.52,East,80,0.0,0.0,39,0.00,,,0.00,WeatherCatV1.02B3,2013-02-07 23:56:00,
2013-02-07 19:01:00,26.0,5.6,30.52,East,80,0.0,0.0,41,0.00,,,0.00,WeatherCatV1.02B3,2013-02-08 00:01:00,
2013-02-07 19:06:00,25.8,4.8,30.52,East,90,0.0,5.0,40,0.00,,,0.00,WeatherCatV1.02B3,2013-02-08 00:06:00,
2013-02-07 19:11:00,25.7,5.3,30.52,ESE,115,0.0,4.0,41,0.00,,,0.00,WeatherCatV1.02B3,2013-02-08 00:11:00,
2013-02-07 19:16:00,25.6,4.7,30.51,East,91,4.0,5.0,40,0.00,,,0.00,WeatherCatV1.02B3,2013-02-08 00:16:00,
2013-02-07 19:21:00,25.5,4.6,30.52,East,88,1.0,3.0,40,0.00,,,0.00,WeatherCatV1.02B3,2013-02-08 00:21:00,
2013-02-07 19:26:00,25.5,4.6,30.52,East,88,3.0,6.0,40,0.00,,,0.00,WeatherCatV1.02B3,2013-02-08 00:26:00,
2013-02-07 19:31:00,25.5,5.6,30.51,NE,44,2.0,7.0,42,0.00,,,0.00,WeatherCatV1.02B3,2013-02-08 00:31:00,
2013-02-07 19:36:00,25.5,5.1,30.51,ESE,106,0.0,1.0,41,0.00,,,0.00,WeatherCatV1.02B3,2013-02-08 00:36:00,
2013-02-07 19:41:00,25.4,4.5,30.51,SE,131,0.0,2.0,40,0.00,,,0.00,WeatherCatV1.02B3,2013-02-08 00:41:00,
2013-02-07 19:46:00,25.4,5.0,30.51,East,97,5.0,5.0,41,0.00,,,0.00,WeatherCatV1.02B3,2013-02-08 00:46:00,
2013-02-07 19:51:00,25.3,4.4,30.51,NE,48,3.0,4.0,40,0.00,,,0.00,WeatherCatV1.02B3,2013-02-08 00:51:00,
2013-02-07 19:56:00,25.2,4.8,30.51,NE,51,3.0,3.0,41,0.00,,,0.00,WeatherCatV1.02B3,2013-02-08 00:56:00,
2013-02-07 20:01:00,25.2,4.8,30.51,ESE,105,4.0,6.0,41,0.00,,,0.00,WeatherCatV1.02B3,2013-02-08 01:01:00,
2013-02-07 20:06:00,25.0,4.1,30.51,SE,134,2.0,4.0,40,0.00,,,0.00,WeatherCatV1.02B3,2013-02-08 01:06:00,
2013-02-07 20:11:00,25.0,4.7,30.51,East,96,5.0,6.0,41,0.00,,,0.00,WeatherCatV1.02B3,2013-02-08 01:11:00,
2013-02-07 20:16:00,24.9,4.6,30.51,ESE,111,0.0,1.0,41,0.00,,,0.00,WeatherCatV1.02B3,2013-02-08 01:16:00,
2013-02-07 20:21:00,24.9,5.1,30.51,East,90,0.0,4.0,42,0.00,,,0.00,WeatherCatV1.02B3,2013-02-08 01:21:00,
2013-02-07 20:26:00,24.9,4.6,30.51,East,85,0.0,5.0,41,0.00,,,0.00,WeatherCatV1.02B3,2013-02-08 01:26:00,
2013-02-07 20:31:00,24.8,5.0,30.51,ESE,117,2.0,5.0,42,0.00,,,0.00,WeatherCatV1.02B3,2013-02-08 01:31:00,
2013-02-07 20:36:00,24.8,5.0,30.52,ENE,71,2.0,5.0,42,0.00,,,0.00,WeatherCatV1.02B3,2013-02-08 01:36:00,
2013-02-07 20:41:00,24.7,4.9,30.52,East,101,4.0,4.0,42,0.00,,,0.00,WeatherCatV1.02B3,2013-02-08 01:41:00,
2013-02-07 20:46:00,24.7,5.4,30.52,NE,34,0.0,2.0,43,0.00,,,0.00,WeatherCatV1.02B3,2013-02-08 01:46:00,
2013-02-07 20:51:00,24.6,5.3,30.52,East,81,2.0,5.0,43,0.00,,,0.00,WeatherCatV1.02B3,2013-02-08 01:51:00,
2013-02-07 20:56:00,24.6,5.3,30.52,NNE,22,2.0,9.0,43,0.00,,,0.00,WeatherCatV1.02B3,2013-02-08 01:56:00,
2013-02-07 21:01:00,24.5,5.2,30.52,NE,40,0.0,1.0,43,0.00,,,0.00,WeatherCatV1.02B3,2013-02-08 02:01:00,
2013-02-07 21:06:00,24.5,5.7,30.52,East,89,4.0,4.0,44,0.00,,,0.00,WeatherCatV1.02B3,2013-02-08 02:06:00,
2013-02-07 21:11:00,24.4,5.7,30.52,NE,40,1.0,2.0,44,0.00,,,0.00,WeatherCatV1.02B3,2013-02-08 02:11:00,
2013-02-07 21:16:00,24.4,6.1,30.52,NE,40,0.0,1.0,45,0.00,,,0.00,WeatherCatV1.02B3,2013-02-08 02:16:00,
2013-02-07 21:21:00,24.4,6.1,30.52,East,89,2.0,4.0,45,0.00,,,0.00,WeatherCatV1.02B3,2013-02-08 02:21:00,
2013-02-07 21:26:00,24.3,6.1,30.52,ESE,122,1.0,4.0,45,0.00,,,0.00,WeatherCatV1.02B3,2013-02-08 02:26:00,
2013-02-07 21:31:00,24.3,7.0,30.52,NNE,21,4.0,4.0,47,0.00,,,0.00,WeatherCatV1.02B3,2013-02-08 02:31:00,
2013-02-07 21:36:00,24.3,6.5,30.52,East,100,2.0,2.0,46,0.00,,,0.00,WeatherCatV1.02B3,2013-02-08 02:36:00,
2013-02-07 21:41:00,24.2,6.9,30.52,ENE,78,0.0,0.0,47,0.00,,,0.00,WeatherCatV1.02B3,2013-02-08 02:41:00,
2013-02-07 21:46:00,24.2,6.9,30.52,East,95,1.0,5.0,47,0.00,,,0.00,WeatherCatV1.02B3,2013-02-08 02:46:00,
2013-02-07 21:51:00,24.1,7.3,30.52,ENE,78,2.0,4.0,48,0.00,,,0.00,WeatherCatV1.02B3,2013-02-08 02:51:00,
2013-02-07 21:56:00,24.1,7.3,30.51,East,98,5.0,5.0,48,0.00,,,0.00,WeatherCatV1.02B3,2013-02-08 02:56:00,
2013-02-07 22:01:00,24.0,7.6,30.51,NE,35,4.0,4.0,49,0.00,,,0.00,WeatherCatV1.02B3,2013-02-08 03:01:00,
2013-02-07 22:06:00,24.0,7.6,30.51,ESE,103,1.0,1.0,49,0.00,,,0.00,WeatherCatV1.02B3,2013-02-08 03:06:00,
2013-02-07 22:11:00,24.0,8.1,30.51,NE,50,2.0,3.0,50,0.00,,,0.00,WeatherCatV1.02B3,2013-02-08 03:11:00,
2013-02-07 22:16:00,24.0,8.5,30.52,SE,136,0.0,5.0,51,0.00,,,0.00,WeatherCatV1.02B3,2013-02-08 03:16:00,
2013-02-07 22:21:00,24.1,8.6,30.52,East,92,4.0,8.0,51,0.00,,,0.00,WeatherCatV1.02B3,2013-02-08 03:21:00,
2013-02-07 22:26:00,24.0,8.5,30.51,ESE,105,4.0,4.0,51,0.00,,,0.00,WeatherCatV1.02B3,2013-02-08 03:26:00,
2013-02-07 22:31:00,24.1,9.1,30.51,ESE,121,0.0,2.0,52,0.00,,,0.00,WeatherCatV1.02B3,2013-02-08 03:31:00,
2013-02-07 22:36:00,24.0,9.0,30.51,SSE,151,2.0,2.0,52,0.00,,,0.00,WeatherCatV1.02B3,2013-02-08 03:36:00,
2013-02-07 22:41:00,24.0,9.4,30.51,ESE,123,0.0,5.0,53,0.00,,,0.00,WeatherCatV1.02B3,2013-02-08 03:41:00,
2013-02-07 22:46:00,24.0,9.4,30.51,SE,130,5.0,9.0,53,0.00,,,0.00,WeatherCatV1.02B3,2013-02-08 03:46:00,
2013-02-07 22:51:00,24.0,9.8,30.51,SSE,149,4.0,7.0,54,0.00,,,0.00,WeatherCatV1.02B3,2013-02-08 03:51:00,
2013-02-07 22:56:00,24.0,10.2,30.51,SE,124,0.0,2.0,55,0.00,,,0.00,WeatherCatV1.02B3,2013-02-08 03:56:00,
2013-02-07 23:01:00,24.0,10.2,30.51,SSE,163,0.0,1.0,55,0.00,,,0.00,WeatherCatV1.02B3,2013-02-08 04:01:00,
2013-02-07 23:06:00,24.0,10.2,30.51,NE,53,4.0,5.0,55,0.00,,,0.00,WeatherCatV1.02B3,2013-02-08 04:06:00,
2013-02-07 23:11:00,23.9,10.5,30.52,SSW,194,0.0,0.0,56,0.00,,,0.00,WeatherCatV1.02B3,2013-02-08 04:11:00,
2013-02-07 23:16:00,23.8,10.8,30.52,SSW,194,0.0,0.0,57,0.00,,,0.00,WeatherCatV1.02B3,2013-02-08 04:16:00,
2013-02-07 23:21:00,23.8,10.8,30.52,SSW,194,0.0,0.0,57,0.00,,,0.00,WeatherCatV1.02B3,2013-02-08 04:21:00,
2013-02-07 23:26:00,23.6,10.6,30.51,SSW,193,0.0,0.0,57,0.00,,,0.00,WeatherCatV1.02B3,2013-02-08 04:26:00,
2013-02-07 23:31:00,23.5,10.9,30.51,SSW,193,0.0,0.0,58,0.00,,,0.00,WeatherCatV1.02B3,2013-02-08 04:31:00,
2013-02-07 23:36:00,23.4,10.8,30.51,SSW,193,0.0,0.0,58,0.00,,,0.00,WeatherCatV1.02B3,2013-02-08 04:36:00,
2013-02-07 23:41:00,23.2,11.0,30.51,SSW,193,0.0,0.0,59,0.00,,,0.00,WeatherCatV1.02B3,2013-02-08 04:41:00,
2013-02-07 23:46:00,23.1,10.9,30.51,SSW,193,0.0,0.0,59,0.00,,,0.00,WeatherCatV1.02B3,2013-02-08 04:46:00,
2013-02-07 23:52:00,22.8,11.0,30.51,SSW,193,0.0,0.0,60,0.00,,,0.00,WeatherCatV1.02B3,2013-02-08 04:52:00,
2013-02-07 23:57:00,22.6,11.2,30.51,SSW,193,0.0,0.0,61,0.00,,,0.00,WeatherCatV1.02B3,2013-02-08 04:57:00,